Location: New Frontier Mobile Home Park
(32.8448°N, 116.9675°W)
Time: 23:12:18
(UTC+00:00)

Cosmos 2221 Rocket - Pass Details

Date: 14 July 2020
Orbit: 619 x 649 km, 82.5° (Epoch: 05 August)

Event Time Altitude Azimuth Distance (km) Brightness Sun altitude
Rises 10:21:08 0° 347° (NNW) 2,899 7.5 -25.2°
Reaches altitude 10° 10:23:25 10° 342° (NNW) 1,989 6.5 -24.9°
Enters shadow 10:26:36 41° 312° (NW) 905 4.3 -24.5°
